Location: Centerville
(32.8776°N, 96.6203°W)
Time: 03:02:54
(UTC+00:00)

DELTA 2 R/B (1) - Pass Details

Date: 17 June 2021
Orbit: 789 x 804 km, 39.6° (Epoch: 29 July)

Event Time Altitude Azimuth Distance (km) Brightness Sun altitude
Exits shadow 08:29:04 43° 298° (WNW) 1,097 4.2 -26.7°
Maximum altitude 08:30:27 54° 345° (NNW) 948 4.1 -26.5°
Drops below altitude 10° 08:35:53 10° 63° (ENE) 2,351 6.8 -25.9°
Sets 08:38:26 0° 67° (ENE) 3,283 7.6 -25.6°
